[[{"header":{"parameterUnit":"m.s-1","parameterCategory":1,"la1":30.2992,"la2":30.254,"lo1":-89.0895,"lo2":-89.0443,"dy":0.0025,"dx":0.0025,"nx":19,"ny":19,"refTime":"2026-03-19T03:00:00:Z","depth":0,"parameterNumber":2,"parameterNumberName":"U-component_of_WINDS"},"data":[0,0,0,0.8123,0.8124,0.8182,0.8182,0.8245,0.8245,0,0,0,0,0,0,0,0,0,0,0,0.8101,0.8101,0.8123,0.8124,0.8182,0.8182,0.8245,0.8245,0,0,0,0,0,0,0,0,0,0,0,0.8101,0.8101,0.8101,0.8124,0.8182,0.8182,0.8245,0.8205,0,0,0,0,0,0,0,0,0,0,0.815,0.8126,0.8101,0.8101,0.8125,0.8182,0.8182,0.8203,0.8207,0.8214,0,0.8221,0,0.8234,0.8249,0.8249,0,0,0,0.8127,0.8122,0.8142,0.8101,0.8125,0.8182,0.8157,0.8205,0.821,0.822,0.8222,0.8225,0.8235,0.8249,0.825,0.8284,0.8284,0,0,0.8124,0.8108,0.8139,0.8145,0.8138,0.8155,0.8158,0.8208,0.8209,0.8223,0.8227,0.8237,0.825,0.825,0.8284,0.8284,0,0,0,0.8113,0.8106,0.8125,0.8142,0.8154,0.8156,0.8161,0.8207,0.8215,0.8227,0.8237,0.825,0.8251,0.8284,0.8284,0.827,0,0,0,0.8111,0.8099,0.8123,0.8114,0.8153,0.8182,0.8158,0.8211,0.8217,0.8237,0.825,0.8251,0.8285,0.8284,0.827,0.8265,0,0,0,0.8099,0.8098,0.8105,0.8113,0.8138,0.8181,0.8192,0.8213,0.8223,0.8249,0.8251,0.8285,0.8284,0.8271,0.8266,0.8269,0,0,0,0.8081,0.8091,0.8104,0.812,0.8137,0.8172,0.8192,0.8218,0.8239,0.825,0.8285,0.8284,0.8271,0.8267,0.827,0.8269,0.8267,0,0,0.8085,0.8091,0.8102,0.8115,0.8143,0.8164,0.819,0.8224,0.824,0.8268,0.8269,0.827,0.8266,0.8269,0.8265,0.8264,0,0,0,0.8098,0.8105,0.8116,0.8135,0.8161,0.8182,0.8213,0.8225,0.825,0.8252,0.8273,0.8271,0.8273,0.8274,0.8273,0.8275,0.8284,0.8284,0.8284,0.8082,0.8102,0.812,0.8146,0.8164,0.8196,0.8211,0.8233,0.8248,0.8252,0.8261,0.8256,0.8256,0.8255,0.8257,0.8262,0.8262,0.8262,0.8262,0.809,0.8102,0.8121,0.8146,0.8166,0.8185,0.8215,0.8224,0.8244,0.8252,0.8255,0.826,0.8253,0.8256,0.8261,0.8262,0.8262,0.8262,0.8262,0.8081,0.8091,0.8105,0.8134,0.8153,0.8179,0.8197,0.8215,0.8232,0.8235,0.8245,0.8246,0.8247,0.8239,0.8239,0.8239,0.8239,0.8239,0.8239,0.8067,0.8084,0.8098,0.8125,0.8138,0.8158,0.8188,0.8201,0.8221,0.8232,0.8232,0.8246,0.8249,0.8249,0.8239,0.8239,0.8239,0.8239,0.8239,0.8067,0.807,0.8091,0.8105,0.8136,0.8153,0.8175,0.8201,0.8214,0.8222,0.8234,0.8234,0.8241,0.8242,0.8242,0.8231,0.8231,0.8231,0.8231,0.806,0.8065,0.809,0.811,0.8132,0.8153,0.8174,0.8196,0.8219,0.8228,0.8232,0.8234,0.8234,0.8241,0.8242,0.8243,0.8232,0.8232,0.8232,0.806,0.8068,0.8084,0.8107,0.8133,0.8154,0.8173,0.8194,0.822,0.8232,0.8235,0.8235,0.8238,0.8238,0.825,0.8252,0.8253,0,0]},{"header":{"parameterUnit":"m.s-1","parameterCategory":1,"la1":30.2992,"la2":30.254,"lo1":-89.0895,"lo2":-89.0443,"dy":0.0025,"dx":0.0025,"nx":19,"ny":19,"refTime":"2026-03-19T03:00:00:Z","depth":0,"parameterNumber":3,"parameterNumberName":"V-component_of_WINDS"},"data":[0,0,0,2.4677,2.4676,2.4644,2.4644,2.4615,2.4615,0,0,0,0,0,0,0,0,0,0,0,2.4696,2.4696,2.4677,2.4676,2.4644,2.4644,2.4615,2.4615,0,0,0,0,0,0,0,0,0,0,0,2.4696,2.4696,2.4696,2.4676,2.4644,2.4644,2.4615,2.4635,0,0,0,0,0,0,0,0,0,0,2.4664,2.4691,2.4696,2.4696,2.4676,2.4644,2.4644,2.4635,2.4634,2.4636,0,2.4642,0,2.4628,2.4614,2.4614,0,0,0,2.4669,2.4693,2.4675,2.4696,2.4676,2.4644,2.4657,2.4634,2.4632,2.4633,2.4641,2.464,2.4628,2.4614,2.4614,2.4652,2.4653,0,0,2.4671,2.4695,2.4677,2.4675,2.4682,2.4658,2.4656,2.4633,2.4642,2.4641,2.4639,2.4627,2.4614,2.4614,2.4652,2.4653,0,0,0,2.4681,2.4697,2.4679,2.4676,2.467,2.4657,2.4655,2.4643,2.4636,2.4638,2.4627,2.4614,2.4614,2.4651,2.4652,2.47,0,0,0,2.4682,2.4702,2.4681,2.4695,2.467,2.4656,2.4666,2.4637,2.4634,2.4627,2.4614,2.4614,2.4651,2.4652,2.4698,2.4719,0,0,0,2.4695,2.4704,2.4702,2.4696,2.4684,2.4656,2.4647,2.4636,2.4627,2.4614,2.4613,2.465,2.4652,2.4695,2.4715,2.4734,0,0,0,2.4715,2.4747,2.4704,2.4734,2.4684,2.4687,2.4647,2.4648,2.4643,2.4614,2.4651,2.4652,2.4695,2.4712,2.4732,2.4753,2.4765,0,0,2.4768,2.4754,2.477,2.473,2.4747,2.469,2.4713,2.4685,2.4662,2.4656,2.4657,2.4699,2.4714,2.4733,2.4826,2.4836,0,0,0,2.4794,2.4806,2.4805,2.4801,2.4781,2.4763,2.473,2.4718,2.4713,2.4665,2.4711,2.472,2.473,2.4739,2.4747,2.4752,2.4658,2.4658,2.4658,2.4903,2.4871,2.4894,2.4857,2.4854,2.4817,2.481,2.4789,2.4759,2.477,2.4768,2.4828,2.484,2.4846,2.4852,2.4778,2.4778,2.4779,2.4779,2.4975,2.4985,2.4943,2.495,2.4915,2.492,2.4885,2.4863,2.486,2.4828,2.4835,2.4801,2.4857,2.4861,2.4782,2.4781,2.4781,2.4781,2.478,2.5041,2.504,2.5027,2.5016,2.501,2.4972,2.4971,2.494,2.4911,2.4918,2.491,2.4909,2.4902,2.4917,2.4917,2.4917,2.4917,2.4917,2.4918,2.5114,2.5097,2.5101,2.5081,2.5073,2.5058,2.502,2.501,2.4991,2.4968,2.4968,2.4935,2.487,2.4853,2.4921,2.492,2.492,2.4919,2.4919,2.5196,2.5172,2.5179,2.5171,2.5142,2.5137,2.5097,2.508,2.5067,2.5067,2.5032,2.499,2.4973,2.4966,2.4952,2.5041,2.5041,2.5041,2.5041,2.525,2.5239,2.5237,2.5225,2.521,2.5174,2.5179,2.5149,2.5114,2.5103,2.5086,2.5065,2.506,2.5045,2.5037,2.5023,2.5128,2.5128,2.5128,2.5298,2.5283,2.5294,2.5261,2.5236,2.5214,2.5217,2.5203,2.5158,2.5131,2.5093,2.509,2.5055,2.5046,2.5017,2.5005,2.4978,0,0]}]]